GW1109 Weather Reports


time (UTC)temp
C
wind
direction
speed
KPH
gust
KPH
rain 1hr
cm
rain 24hr
cm
rain mn
cm
humidity
%
barometer
mb
20240614124547 22 238 8.0 22.5 0.00 0.00 0.00 73 1010.2
20240614123035 21 214 9.7 19.3 0.00 0.00 0.00 74 1010.1
20240614121539 21 244 4.8 17.7 0.00 0.00 0.00 77 1010.3
20240614120033 20 219 6.4 17.7 0.00 0.00 0.00 77 1010.4
20240614114530 20 221 9.7 19.3 0.00 0.00 0.00 77 1010.2
20240614113030 19 232 11.3 19.3 0.00 0.00 0.00 77 1010.3
20240614111535 19 230 8.0 19.3 0.00 0.00 0.00 77 1010.3
20240614110034 18 218 9.7 25.7 0.00 0.00 0.00 77 1010.1
20240614104534 18 241 9.7 22.5 0.00 0.00 0.00 78 1010.1
20240614103028 18 225 8.0 20.9 0.00 0.00 0.00 78 1010.2
20240614101541 18 241 8.0 17.7 0.00 0.00 0.00 78 1010.1
20240614100034 17 217 6.4 17.7 0.00 0.00 0.00 78 1010.2
20240614094537 17 242 8.0 17.7 0.00 0.00 0.00 78 1010.1
20240614093030 17 231 6.4 16.1 0.00 0.00 0.00 78 1010.0
20240614091537 17 211 8.0 14.5 0.00 0.00 0.00 79 1010.0
20240614090031 17 207 8.0 17.7 0.00 0.00 0.00 79 1009.9
20240614084531 17 220 4.8 11.3 0.00 0.00 0.00 79 1009.9
20240614083039 17 273 4.8 12.9 0.00 0.00 0.00 77 1009.9
20240614081531 18 225 4.8 14.5 0.00 0.00 0.00 76 1009.9
20240614080030 18 258 8.0 16.1 0.00 0.00 0.00 76 1009.9
20240614074540 18 211 6.4 17.7 0.00 0.00 0.00 76 1009.8
20240614073032 18 225 6.4 14.5 0.00 0.00 0.00 76 1010.0
20240614071541 18 247 4.8 11.3 0.00 0.00 0.00 75 1010.1
20240614070036 18 254 6.4 12.9 0.00 0.00 0.00 74 1010.3
20240614064540 18 223 4.8 9.7 0.00 0.00 0.00 76 1010.1
20240614063029 18 241 6.4 12.9 0.00 0.00 0.00 77 1010.3
20240614061530 18 235 1.6 12.9 0.00 0.00 0.00 75 1010.7
20240614060037 19 232 6.4 16.1 0.00 0.00 0.00 74 1010.9
20240614054532 19 229 8.0 17.7 0.00 0.00 0.00 75 1011.1
20240614053032 19 232 6.4 14.5 0.00 0.00 0.00 76 1011.1
20240614051538 19 221 6.4 14.5 0.00 0.00 0.00 76 1011.2
20240614050037 18 219 6.4 16.1 0.00 0.00 0.00 78 1011.2
20240614044537 18 291 3.2 11.3 0.00 0.00 0.00 79 1011.6
20240614043027 18 242 3.2 8.0 0.00 0.00 0.00 81 1011.9
20240614041544 18 0 3.2 11.3 0.00 0.00 0.00 80 1012.1
20240614040047 18 242 1.6 6.4 0.00 0.00 0.00 80 1012.2
20240614034531 18 221 3.2 9.7 0.00 0.20 0.00 78 1012.3
20240614033039 19 217 1.6 8.0 0.00 0.20 0.00 75 1012.6
20240614031535 20 221 4.8 14.5 0.00 0.20 0.00 72 1012.7
20240614030030 21 264 8.0 17.7 0.00 0.20 0.00 69 1012.5
20240614024535 21 236 6.4 19.3 0.00 0.25 0.00 68 1012.6
20240614023033 21 213 8.0 24.1 0.00 0.25 0.00 69 1012.2
20240614021535 20 192 4.8 14.5 0.00 0.25 0.00 73 1012.4
20240614020035 19 202 3.2 6.4 0.00 0.25 0.00 76 1012.6
20240614014533 19 239 0.0 4.8 0.00 0.25 0.00 74 1012.9
20240614013032 19 248 0.0 8.0 0.00 0.25 0.00 73 1012.9
20240614011548 19 0 1.6 4.8 0.00 0.25 0.00 75 1012.8
20240614010033 19 0 1.6 6.4 0.00 0.25 0.00 76 1012.6
20240614004535 19 0 0.0 4.8 0.00 0.25 0.00 75 1012.8
20240614003034 20 0 0.0 4.8 0.00 0.25 0.00 73 1013.0
20240614001540 20 167 0.0 4.8 0.00 0.25 0.00 69 1012.9
20240614000034 21 0 0.0 4.8 0.00 0.25 0.00 65 1012.9
20240613234616 21 189 1.6 8.0 0.00 0.25 0.00 63 1013.2
20240613233030 22 175 3.2 12.9 0.00 0.25 0.00 61 1013.1
20240613231540 22 140 1.6 11.3 0.00 0.25 0.00 60 1012.9
20240613230041 23 141 0.0 9.7 0.00 0.25 0.00 59 1012.8
20240613224532 24 139 3.2 9.7 0.00 0.25 0.00 54 1012.9
20240613223037 25 136 4.8 8.0 0.00 0.25 0.00 53 1013.1
20240613221537 24 197 6.4 14.5 0.00 0.25 0.00 51 1013.1
20240613220036 24 148 3.2 14.5 0.00 0.25 0.00 51 1012.9
20240613214531 25 165 4.8 12.9 0.00 0.25 0.00 50 1012.8
20240613213037 26 206 9.7 16.1 0.00 0.25 0.00 44 1013.0
20240613211533 25 206 4.8 16.1 0.00 0.25 0.00 42 1013.1
20240613210038 26 210 6.4 16.1 0.00 0.25 0.00 40 1013.2
20240613204534 26 241 8.0 22.5 0.00 0.25 0.00 39 1013.2
20240613203029 26 229 6.4 19.3 0.00 0.25 0.00 45 1013.0
20240613201541 26 219 4.8 16.1 0.00 0.25 0.00 42 1013.2
20240613200034 26 198 8.0 17.7 0.00 0.25 0.00 42 1013.2
20240613194533 26 165 4.8 17.7 0.00 0.25 0.00 44 1013.3
20240613193033 26 241 4.8 12.9 0.00 0.25 0.00 45 1013.5
20240613191529 25 241 6.4 19.3 0.00 0.25 0.00 44 1013.6
20240613190037 25 200 4.8 16.1 0.00 0.25 0.00 41 1013.7
20240613184536 25 321 6.4 16.1 0.00 0.25 0.00 40 1013.8
20240613183050 25 238 9.7 16.1 0.00 0.25 0.00 44 1013.8
20240613181544 24 279 4.8 12.9 0.00 0.25 0.00 45 1013.9
20240613180034 24 262 6.4 16.1 0.00 0.25 0.00 45 1014.1
20240613174601 23 290 3.2 16.1 0.00 0.25 0.00 43 1014.1
20240613173032 23 269 4.8 14.5 0.00 0.25 0.00 44 1014.2
20240613171609 23 190 4.8 17.7 0.00 0.25 0.00 47 1014.2
20240613170036 23 299 3.2 14.5 0.00 0.25 0.00 52 1014.4
20240613164532 23 260 4.8 16.1 0.00 0.30 0.00 55 1014.8
20240613163033 22 96 1.6 6.4 0.00 0.30 0.00 53 1014.8
20240613161539 22 0 4.8 12.9 0.00 0.30 0.00 51 1014.9
20240613160029 22 19 3.2 6.4 0.00 0.30 0.00 53 1015.1
20240613154535 22 190 3.2 12.9 0.00 0.30 0.00 54 1015.0
20240613153031 22 260 3.2 14.5 0.00 0.30 0.00 55 1015.0
20240613151537 21 240 4.8 16.1 0.00 0.30 0.00 58 1015.3
20240613150031 21 261 4.8 17.7 0.00 0.30 0.00 61 1015.3
20240613144550 21 273 6.4 17.7 0.00 0.30 0.00 62 1015.2
20240613143029 21 314 8.0 19.3 0.00 0.30 0.00 62 1015.4
20240613141531 21 5 6.4 16.1 0.00 0.30 0.00 63 1015.3
20240613140030 21 291 11.3 19.3 0.00 0.30 0.00 62 1015.4
20240613134544 21 305 4.8 16.1 0.00 0.30 0.00 71 1015.5
20240613133032 21 281 4.8 14.5 0.00 0.30 0.00 73 1015.6
20240613131531 21 306 1.6 12.9 0.00 0.30 0.00 76 1015.5
20240613130037 20 228 3.2 11.3 0.00 0.30 0.00 76 1015.5